Time,TemperatureF,DewpointF,PressureIn,WindDirection,WindDirectionDegrees,WindSpeedMPH,WindSpeedGustMPH,Humidity,HourlyPrecipIn,Conditions,Clouds,dailyrainin,SoftwareType,DateUTC
2013-03-18 00:02:00,48.0,43.0,29.68,SE,141,0.0,3.0,83,0.00,,,0.00,,2013-03-18 05:02:00,
2013-03-18 00:12:00,48.0,43.0,29.68,SE,141,0.0,3.0,83,0.00,,,0.00,,2013-03-18 05:12:00,
2013-03-18 00:22:00,48.0,43.0,29.67,ESE,113,0.0,1.0,83,0.00,,,0.00,,2013-03-18 05:22:00,
2013-03-18 00:32:00,48.0,43.0,29.67,ESE,108,0.0,0.0,82,0.00,,,0.00,,2013-03-18 05:32:00,
2013-03-18 00:43:00,48.0,43.0,29.67,ESE,108,0.0,0.0,82,0.00,,,0.00,,2013-03-18 05:43:00,
2013-03-18 00:52:00,48.0,43.0,29.68,ESE,107,0.0,4.0,83,0.00,,,0.00,,2013-03-18 05:52:00,
2013-03-18 01:02:00,48.0,43.0,29.68,ESE,108,0.0,3.0,84,0.00,,,0.00,,2013-03-18 06:02:00,
2013-03-18 01:12:00,48.0,43.0,29.68,ESE,108,0.0,3.0,84,0.00,,,0.00,,2013-03-18 06:12:00,
2013-03-18 01:22:00,48.0,43.0,29.68,SSE,155,0.0,1.0,84,0.00,,,0.00,,2013-03-18 06:22:00,
2013-03-18 01:32:00,47.0,42.0,29.68,ESE,105,0.0,2.0,84,0.00,,,0.00,,2013-03-18 06:32:00,
2013-03-18 01:42:00,47.0,42.0,29.68,ESE,105,0.0,2.0,84,0.00,,,0.00,,2013-03-18 06:42:00,
2013-03-18 01:52:00,47.0,43.0,29.67,ESE,103,0.0,1.0,85,0.00,,,0.00,,2013-03-18 06:52:00,
2013-03-18 02:02:00,47.0,43.0,29.67,ENE,78,0.0,2.0,85,0.00,,,0.00,,2013-03-18 07:02:00,
2013-03-18 02:12:00,47.0,43.0,29.67,ENE,78,0.0,2.0,85,0.00,,,0.00,,2013-03-18 07:12:00,
2013-03-18 02:22:00,46.0,42.0,29.69,ENE,67,0.0,2.0,85,0.00,,,0.00,,2013-03-18 07:22:00,
2013-03-18 02:32:00,47.0,43.0,29.69,NE,36,2.0,4.0,86,0.00,,,0.00,,2013-03-18 07:32:00,
2013-03-18 02:42:00,47.0,43.0,29.69,NE,36,2.0,4.0,86,0.00,,,0.00,,2013-03-18 07:42:00,
2013-03-18 02:53:00,47.0,43.0,29.69,ENE,78,0.0,2.0,85,0.00,,,0.00,,2013-03-18 07:53:00,
2013-03-18 03:02:00,46.0,42.0,29.68,ENE,68,1.0,4.0,86,0.00,,,0.00,,2013-03-18 08:02:00,
2013-03-18 03:12:00,46.0,42.0,29.68,ENE,68,1.0,4.0,86,0.00,,,0.00,,2013-03-18 08:12:00,
2013-03-18 03:22:00,46.0,42.0,29.68,ENE,76,1.0,6.0,87,0.00,,,0.00,,2013-03-18 08:22:00,
2013-03-18 03:32:00,45.0,42.0,29.67,ENE,74,0.0,3.0,88,0.00,,,0.00,,2013-03-18 08:32:00,
2013-03-18 03:43:00,45.0,42.0,29.67,ENE,74,0.0,3.0,88,0.00,,,0.00,,2013-03-18 08:43:00,
2013-03-18 03:52:00,45.0,42.0,29.67,NE,49,0.0,1.0,89,0.00,,,0.00,,2013-03-18 08:52:00,
2013-03-18 04:02:00,44.0,41.0,29.67,ENE,72,0.0,1.0,89,0.00,,,0.00,,2013-03-18 09:02:00,
2013-03-18 04:12:00,44.0,41.0,29.67,ENE,72,0.0,1.0,89,0.00,,,0.00,,2013-03-18 09:12:00,
2013-03-18 04:22:00,44.0,41.0,29.67,East,82,0.0,2.0,90,0.00,,,0.00,,2013-03-18 09:22:00,
2013-03-18 04:33:00,44.0,41.0,29.67,ENE,75,2.0,5.0,90,0.00,,,0.00,,2013-03-18 09:33:00,
2013-03-18 04:43:00,44.0,41.0,29.67,ENE,75,2.0,5.0,90,0.00,,,0.00,,2013-03-18 09:43:00,
2013-03-18 04:53:00,44.0,41.0,29.67,East,86,1.0,4.0,90,0.00,,,0.00,,2013-03-18 09:53:00,
2013-03-18 05:03:00,44.0,42.0,29.73,NNW,332,5.0,7.0,91,0.00,,,0.00,,2013-03-18 10:03:00,
2013-03-18 05:12:00,44.0,42.0,29.73,NNW,332,5.0,7.0,91,0.00,,,0.00,,2013-03-18 10:12:00,
2013-03-18 05:23:00,45.0,42.0,29.74,North,8,7.0,11.0,90,0.00,,,0.00,,2013-03-18 10:23:00,
2013-03-18 05:33:00,45.0,42.0,29.73,NNE,13,7.0,13.0,89,0.00,,,0.00,,2013-03-18 10:33:00,
2013-03-18 05:42:00,45.0,42.0,29.73,NNE,13,7.0,13.0,89,0.00,,,0.00,,2013-03-18 10:42:00,
2013-03-18 05:53:00,45.0,42.0,29.78,North,358,5.0,11.0,88,0.00,,,0.00,,2013-03-18 10:53:00,
2013-03-18 06:03:00,45.0,42.0,29.73,ENE,70,5.0,12.0,88,0.00,,,0.00,,2013-03-18 11:03:00,
2013-03-18 06:12:00,45.0,42.0,29.73,ENE,70,5.0,12.0,88,0.00,,,0.00,,2013-03-18 11:12:00,
2013-03-18 06:22:00,45.0,42.0,29.78,NNW,345,6.0,12.0,88,0.00,,,0.00,,2013-03-18 11:22:00,
2013-03-18 06:32:00,44.0,41.0,29.81,NNW,328,8.0,13.0,89,0.00,,,0.00,,2013-03-18 11:32:00,
2013-03-18 06:42:00,44.0,41.0,29.81,NNW,328,8.0,13.0,89,0.00,,,0.00,,2013-03-18 11:42:00,
2013-03-18 06:52:00,44.0,41.0,29.81,NE,47,7.0,15.0,89,0.00,,,0.00,,2013-03-18 11:52:00,
2013-03-18 07:02:00,44.0,41.0,29.82,NE,34,8.0,15.0,89,0.00,,,0.00,,2013-03-18 12:02:00,
2013-03-18 07:12:00,44.0,41.0,29.82,NE,34,8.0,15.0,89,0.00,,,0.00,,2013-03-18 12:12:00,
2013-03-18 07:22:00,44.0,41.0,29.83,NNE,30,8.0,13.0,89,0.00,,,0.00,,2013-03-18 12:22:00,
2013-03-18 07:32:00,44.0,41.0,29.83,North,5,4.0,10.0,89,0.00,,,0.00,,2013-03-18 12:32:00,
2013-03-18 07:42:00,44.0,41.0,29.83,North,5,4.0,10.0,89,0.00,,,0.00,,2013-03-18 12:42:00,
2013-03-18 07:52:00,44.0,41.0,29.85,NE,41,5.0,12.0,89,0.00,,,0.00,,2013-03-18 12:52:00,
2013-03-18 08:02:00,44.0,41.0,29.85,NE,41,5.0,12.0,89,0.00,,,0.00,,2013-03-18 13:02:00,
2013-03-18 08:12:00,44.0,41.0,29.85,NE,41,5.0,12.0,89,0.00,,,0.00,,2013-03-18 13:12:00,
2013-03-18 08:22:00,44.0,41.0,29.86,NW,309,4.0,9.0,89,0.00,,,0.00,,2013-03-18 13:22:00,
2013-03-18 08:32:00,44.0,41.0,29.88,North,9,3.0,7.0,89,0.00,,,0.00,,2013-03-18 13:32:00,
2013-03-18 08:42:00,44.0,41.0,29.88,North,9,3.0,7.0,89,0.00,,,0.00,,2013-03-18 13:42:00,
2013-03-18 08:52:00,45.0,42.0,29.87,NNE,21,3.0,6.0,88,0.00,,,0.00,,2013-03-18 13:52:00,
2013-03-18 09:02:00,45.0,42.0,29.90,NNW,342,3.0,8.0,88,0.00,,,0.00,,2013-03-18 14:02:00,
2013-03-18 09:12:00,45.0,42.0,29.90,NNW,342,3.0,8.0,88,0.00,,,0.00,,2013-03-18 14:12:00,
2013-03-18 09:22:00,45.0,41.0,29.92,North,9,7.0,13.0,87,0.00,,,0.00,,2013-03-18 14:22:00,
2013-03-18 09:32:00,45.0,42.0,29.93,NNE,33,5.0,14.0,88,0.00,,,0.00,,2013-03-18 14:32:00,
2013-03-18 09:42:00,45.0,42.0,29.93,NNE,33,5.0,14.0,88,0.00,,,0.00,,2013-03-18 14:42:00,
2013-03-18 09:52:00,45.0,41.0,29.93,NNE,33,9.0,16.0,87,0.00,,,0.00,,2013-03-18 14:52:00,
2013-03-18 10:02:00,45.0,41.0,29.93,NNE,33,9.0,16.0,87,0.00,,,0.00,,2013-03-18 15:02:00,
2013-03-18 10:12:00,45.0,41.0,29.93,NNE,33,9.0,16.0,87,0.00,,,0.00,,2013-03-18 15:12:00,
2013-03-18 10:22:00,47.0,43.0,29.96,North,355,6.0,13.0,85,0.00,,,0.00,,2013-03-18 15:22:00,
2013-03-18 10:33:00,49.0,43.0,29.96,WNW,285,7.0,13.0,81,0.00,,,0.00,,2013-03-18 15:33:00,
2013-03-18 10:43:00,49.0,43.0,29.96,WNW,285,7.0,13.0,81,0.00,,,0.00,,2013-03-18 15:43:00,
2013-03-18 10:52:00,49.0,43.0,29.96,WNW,285,7.0,13.0,81,0.00,,,0.00,,2013-03-18 15:52:00,
2013-03-18 11:03:00,50.0,43.0,29.96,North,8,9.0,12.0,78,0.00,,,0.00,,2013-03-18 16:03:00,
2013-03-18 11:12:00,50.0,43.0,29.96,North,8,9.0,12.0,78,0.00,,,0.00,,2013-03-18 16:12:00,
2013-03-18 11:22:00,51.0,44.0,29.96,NNW,333,4.0,14.0,77,0.00,,,0.00,,2013-03-18 16:22:00,
2013-03-18 11:32:00,52.0,44.0,29.97,NNW,330,9.0,16.0,74,0.00,,,0.00,,2013-03-18 16:32:00,
2013-03-18 11:42:00,52.0,44.0,29.97,NNW,330,9.0,16.0,74,0.00,,,0.00,,2013-03-18 16:42:00,
2013-03-18 11:52:00,53.0,44.0,29.97,NE,34,8.0,15.0,71,0.00,,,0.00,,2013-03-18 16:52:00,
2013-03-18 12:02:00,54.0,44.0,29.98,NW,319,5.0,15.0,68,0.00,,,0.00,,2013-03-18 17:02:00,
2013-03-18 12:12:00,54.0,44.0,29.98,NW,319,5.0,15.0,68,0.00,,,0.00,,2013-03-18 17:12:00,
2013-03-18 12:22:00,56.0,45.0,29.97,ENE,64,4.0,8.0,66,0.00,,,0.00,,2013-03-18 17:22:00,
2013-03-18 12:32:00,57.0,45.0,29.97,ESE,114,6.0,10.0,64,0.00,,,0.00,,2013-03-18 17:32:00,
2013-03-18 12:42:00,57.0,45.0,29.97,ESE,114,6.0,10.0,64,0.00,,,0.00,,2013-03-18 17:42:00,
2013-03-18 12:52:00,59.0,45.0,29.97,NNE,24,3.0,9.0,60,0.00,,,0.00,,2013-03-18 17:52:00,
2013-03-18 13:02:00,59.0,45.0,29.96,NW,316,5.0,11.0,59,0.00,,,0.00,,2013-03-18 18:02:00,
2013-03-18 13:12:00,59.0,45.0,29.96,NW,316,5.0,11.0,59,0.00,,,0.00,,2013-03-18 18:12:00,
2013-03-18 13:22:00,60.0,45.0,29.97,NNW,342,6.0,11.0,57,0.00,,,0.00,,2013-03-18 18:22:00,
2013-03-18 13:32:00,60.0,44.0,29.97,NNE,13,8.0,14.0,55,0.00,,,0.00,,2013-03-18 18:32:00,
2013-03-18 13:42:00,60.0,44.0,29.97,NNE,13,8.0,14.0,55,0.00,,,0.00,,2013-03-18 18:42:00,
2013-03-18 13:52:00,62.0,44.0,29.97,NE,47,6.0,10.0,52,0.00,,,0.00,,2013-03-18 18:52:00,
2013-03-18 14:02:00,63.0,45.0,29.96,NW,309,4.0,13.0,52,0.00,,,0.00,,2013-03-18 19:02:00,
2013-03-18 14:12:00,63.0,45.0,29.96,NW,309,4.0,13.0,52,0.00,,,0.00,,2013-03-18 19:12:00,
2013-03-18 14:22:00,63.0,45.0,29.96,NNE,19,8.0,11.0,51,0.00,,,0.00,,2013-03-18 19:22:00,
2013-03-18 14:33:00,63.0,44.0,29.96,North,355,7.0,15.0,49,0.00,,,0.00,,2013-03-18 19:33:00,
2013-03-18 14:42:00,63.0,44.0,29.96,North,355,7.0,15.0,49,0.00,,,0.00,,2013-03-18 19:42:00,
2013-03-18 14:52:00,63.0,44.0,29.95,WNW,300,6.0,11.0,50,0.00,,,0.00,,2013-03-18 19:52:00,
2013-03-18 15:02:00,64.0,45.0,29.95,NW,325,7.0,13.0,50,0.00,,,0.00,,2013-03-18 20:02:00,
2013-03-18 15:12:00,64.0,45.0,29.95,NW,325,7.0,13.0,50,0.00,,,0.00,,2013-03-18 20:12:00,
2013-03-18 15:22:00,64.0,44.0,29.94,NNW,338,5.0,12.0,49,0.00,,,0.00,,2013-03-18 20:22:00,
2013-03-18 15:33:00,64.0,44.0,29.94,NNW,338,5.0,12.0,49,0.00,,,0.00,,2013-03-18 20:33:00,
2013-03-18 15:42:00,64.0,44.0,29.94,NNW,338,5.0,12.0,49,0.00,,,0.00,,2013-03-18 20:42:00,
2013-03-18 15:52:00,65.0,44.0,29.95,NW,307,4.0,9.0,46,0.00,,,0.00,,2013-03-18 20:52:00,
2013-03-18 16:02:00,64.0,43.0,29.95,WNW,288,5.0,14.0,46,0.00,,,0.00,,2013-03-18 21:02:00,
2013-03-18 16:12:00,64.0,43.0,29.95,WNW,288,5.0,14.0,46,0.00,,,0.00,,2013-03-18 21:12:00,
2013-03-18 16:22:00,65.0,42.0,29.95,NW,315,8.0,13.0,43,0.00,,,0.00,,2013-03-18 21:22:00,
2013-03-18 16:32:00,65.0,42.0,29.95,NW,315,8.0,13.0,43,0.00,,,0.00,,2013-03-18 21:32:00,
2013-03-18 16:42:00,65.0,42.0,29.95,NW,315,8.0,13.0,43,0.00,,,0.00,,2013-03-18 21:42:00,
2013-03-18 16:52:00,64.0,39.0,29.95,NW,322,6.0,16.0,40,0.00,,,0.00,,2013-03-18 21:52:00,
2013-03-18 17:03:00,65.0,39.0,29.95,NW,323,6.0,12.0,38,0.00,,,0.00,,2013-03-18 22:03:00,
2013-03-18 17:13:00,65.0,39.0,29.95,NW,323,6.0,12.0,38,0.00,,,0.00,,2013-03-18 22:13:00,
2013-03-18 17:23:00,65.0,38.0,29.95,NNE,32,5.0,13.0,37,0.00,,,0.00,,2013-03-18 22:23:00,
2013-03-18 17:33:00,65.0,37.0,29.94,NNE,32,5.0,11.0,36,0.00,,,0.00,,2013-03-18 22:33:00,
2013-03-18 17:42:00,65.0,37.0,29.94,NNE,32,5.0,11.0,36,0.00,,,0.00,,2013-03-18 22:42:00,
2013-03-18 17:52:00,65.0,37.0,29.95,North,352,5.0,10.0,36,0.00,,,0.00,,2013-03-18 22:52:00,
2013-03-18 18:03:00,64.0,37.0,29.95,ENE,70,5.0,10.0,36,0.00,,,0.00,,2013-03-18 23:03:00,
2013-03-18 18:12:00,64.0,37.0,29.95,ENE,70,5.0,10.0,36,0.00,,,0.00,,2013-03-18 23:12:00,
2013-03-18 18:22:00,64.0,37.0,29.96,North,353,4.0,9.0,36,0.00,,,0.00,,2013-03-18 23:22:00,
2013-03-18 18:32:00,65.0,38.0,29.95,East,86,2.0,6.0,37,0.00,,,0.00,,2013-03-18 23:32:00,
2013-03-18 18:42:00,65.0,38.0,29.95,East,86,2.0,6.0,37,0.00,,,0.00,,2013-03-18 23:42:00,
2013-03-18 18:52:00,65.0,38.0,29.95,East,86,2.0,6.0,37,0.00,,,0.00,,2013-03-18 23:52:00,
2013-03-18 19:02:00,64.0,36.0,29.98,NNE,20,4.0,8.0,35,0.00,,,0.00,,2013-03-19 00:02:00,
2013-03-18 19:12:00,64.0,36.0,29.98,NNE,20,4.0,8.0,35,0.00,,,0.00,,2013-03-19 00:12:00,
2013-03-18 19:22:00,63.0,36.0,29.99,NE,37,2.0,7.0,37,0.00,,,0.00,,2013-03-19 00:22:00,
2013-03-18 19:32:00,63.0,38.0,29.99,North,11,1.0,7.0,40,0.00,,,0.00,,2013-03-19 00:32:00,
2013-03-18 19:42:00,63.0,38.0,29.99,North,11,1.0,7.0,40,0.00,,,0.00,,2013-03-19 00:42:00,
2013-03-18 19:52:00,62.0,37.0,30.00,NNE,30,3.0,7.0,40,0.00,,,0.00,,2013-03-19 00:52:00,
2013-03-18 20:02:00,61.0,37.0,30.00,ENE,64,1.0,5.0,41,0.00,,,0.00,,2013-03-19 01:02:00,
2013-03-18 20:12:00,61.0,37.0,30.00,ENE,64,1.0,5.0,41,0.00,,,0.00,,2013-03-19 01:12:00,
2013-03-18 20:22:00,61.0,38.0,30.01,East,89,1.0,2.0,43,0.00,,,0.00,,2013-03-19 01:22:00,
2013-03-18 20:32:00,60.0,38.0,30.01,East,85,2.0,4.0,44,0.00,,,0.00,,2013-03-19 01:32:00,
2013-03-18 20:42:00,60.0,38.0,30.01,East,85,2.0,4.0,44,0.00,,,0.00,,2013-03-19 01:42:00,
2013-03-18 20:52:00,59.0,38.0,30.01,ENE,75,0.0,2.0,46,0.00,,,0.00,,2013-03-19 01:52:00,
2013-03-18 21:02:00,57.0,38.0,30.02,ENE,75,0.0,1.0,49,0.00,,,0.00,,2013-03-19 02:02:00,
2013-03-18 21:12:00,57.0,38.0,30.02,ENE,75,0.0,1.0,49,0.00,,,0.00,,2013-03-19 02:12:00,
2013-03-18 21:22:00,56.0,38.0,30.02,ENE,77,0.0,1.0,50,0.00,,,0.00,,2013-03-19 02:22:00,
2013-03-18 21:32:00,55.0,38.0,30.02,ENE,77,0.0,1.0,52,0.00,,,0.00,,2013-03-19 02:32:00,
2013-03-18 21:42:00,55.0,38.0,30.02,ENE,77,0.0,1.0,52,0.00,,,0.00,,2013-03-19 02:42:00,
2013-03-18 21:52:00,55.0,38.0,30.02,ENE,78,1.0,2.0,52,0.00,,,0.00,,2013-03-19 02:52:00,
2013-03-18 22:02:00,55.0,38.0,30.02,ENE,78,1.0,2.0,52,0.00,,,0.00,,2013-03-19 03:02:00,
2013-03-18 22:12:00,55.0,38.0,30.02,ENE,78,1.0,2.0,52,0.00,,,0.00,,2013-03-19 03:12:00,
2013-03-18 22:22:00,54.0,37.0,30.03,East,90,1.0,2.0,53,0.00,,,0.00,,2013-03-19 03:22:00,
2013-03-18 22:33:00,53.0,37.0,30.03,East,91,0.0,1.0,55,0.00,,,0.00,,2013-03-19 03:33:00,
2013-03-18 22:43:00,53.0,37.0,30.03,East,91,0.0,1.0,55,0.00,,,0.00,,2013-03-19 03:43:00,
2013-03-18 22:53:00,52.0,37.0,30.03,East,90,0.0,1.0,57,0.00,,,0.00,,2013-03-19 03:53:00,
2013-03-18 23:03:00,51.0,37.0,30.03,East,90,0.0,0.0,59,0.00,,,0.00,,2013-03-19 04:03:00,
2013-03-18 23:13:00,51.0,37.0,30.03,East,90,0.0,0.0,59,0.00,,,0.00,,2013-03-19 04:13:00,
2013-03-18 23:23:00,49.0,37.0,30.04,East,90,0.0,0.0,63,0.00,,,0.00,,2013-03-19 04:23:00,
2013-03-18 23:33:00,47.0,37.0,30.04,East,90,0.0,0.0,68,0.00,,,0.00,,2013-03-19 04:33:00,
2013-03-18 23:43:00,47.0,37.0,30.04,East,90,0.0,0.0,68,0.00,,,0.00,,2013-03-19 04:43:00,
2013-03-18 23:52:00,47.0,38.0,30.04,East,90,0.0,1.0,70,0.00,,,0.00,,2013-03-19 04:52:00,